sat.trackr.live / text

‹ back to catalog

HULIANWANG DIGUI-28

NORAD 63695 · 2025-086J

PAYLOAD ACTIVE UNKNOWN

§ Identity

Operator
Country
PRC
Launch date
2025-04-28
Launch site
WSC
Launch vehicle
Mass (kg)
RCS (m²)

External: N2YO · Heavens-Above · Gunter

§ Orbital elements

Epoch: 2026-09-21T20:52:43.169376Z

Period
108.73 min
Inclination
86.4936°
Eccentricity
0.0001715
Mean motion
13.24412254 rev/d
Perigee alt
1,166.6 km
Apogee alt
1,169.2 km
Semi-major
7,546.1 km
B*
-1.9486e-4
RAAN
280.3269°
Arg perigee
78.8438°
Mean anomaly
281.2889°
Rev number
6,765

§ Raw data

HULIANWANG DIGUI-281 63695U 25086J   26264.86994409 -.00000069  00000+0 -19486-3 0  99962 63695  86.4936 280.3269 0001715  78.8438 281.2889 13.24412254 67659

JSON: /api/v1/satellites/63695 · /tle

For live sub-satellite position, see the globe view (requires WebGL).

§ Visibility from observer

Set your observer location to see the next 7 days of passes ≥ 10°. The values pass through the URL so the page stays shareable.

No JS? Fill the form by hand. The geolocation button needs JavaScript.